Eagle River, WI

4:49 AM CDT on October 17, 2017 (GMT -0500)
Eagle River Union

Weather History for KEGV - July, 2013

Change the Weather History Date:

Wednesday, July 17, 2013

  Actual Average Record
Temperature  
Mean Temperature 78 °F -  
Max Temperature 88 °F 80 °F 89 °F (2002)
Min Temperature 67 °F 58 °F 40 °F (2014)
Cooling Degree Days 12    
Growing Degree Days 28 (Base 50)    
Moisture  
Dew Point 66 °F    
Average Humidity 70    
Maximum Humidity 100    
Minimum Humidity 40    
Precipitation  
Precipitation 0.00 in - - ()
Sea Level Pressure  
Sea Level Pressure 30.23 in    
Wind  
Wind Speed 6 mph (WSW)    
Max Wind Speed 13 mph    
Max Gust Speed 20 mph    
Visibility 9 miles    
Events      
Averages and records for this station are not official NWS values.
T = Trace of Precipitation, MM = Missing Value Source: NWS Daily Summary

Daily Weather History Graph

Daily Weather History Graph

Search for Another Location

Airport or City:

Trip Planner

Search our weather history database for the weather conditions in past years. The results will help you decide how hot, cold, wet, or windy it might be!

Date:

Astronomy

Jul. 17, 2013 Rise Set
Actual Time 5:23 AM CDT 8:42 PM CDT
Civil Twilight 4:46 AM CDT 9:18 PM CDT
Nautical Twilight 3:59 AM CDT 10:06 PM CDT
Astronomical Twilight 2:58 AM CDT 11:06 PM CDT
Moon 3:27 PM CDT 12:37 AM CDT
Length of Visible Light 16h 31m
Length of Day
15h 18m
Waxing Gibbous, 67% of the Moon is Illuminated
Jul 17
Waxing Gibbous
Jul 22
Full
Jul 29
Last Quarter
Aug 6
New
Aug 14
First Quarter

Hourly Weather History & Observations

Time (CDT) Temp. Heat Index Dew Point Humidity Pressure Visibility Wind Dir Wind Speed Gust Speed Precip Events Conditions
12:15 AM 70.0 °F - 68.9 °F 96% 30.25 in 10.0 mi SW 4.6 mph - N/A   Clear
12:35 AM 69.4 °F - 68.9 °F 98% 30.25 in 10.0 mi SW 3.5 mph - N/A   Clear
12:55 AM 70.9 °F - 70.0 °F 97% 30.25 in 10.0 mi SW 3.5 mph - N/A   Clear
1:15 AM 70.9 °F - 69.3 °F 95% 30.25 in 10.0 mi SW 4.6 mph - N/A   Clear
1:35 AM 70.3 °F - 68.9 °F 95% 30.25 in 10.0 mi SW 3.5 mph - N/A   Clear
1:55 AM 70.5 °F - 69.1 °F 95% 30.25 in 10.0 mi SW 4.6 mph - N/A   Clear
2:15 AM 68.5 °F - 68.0 °F 98% 30.25 in 7.0 mi WSW 5.8 mph - N/A   Clear
2:35 AM 68.5 °F - 68.4 °F 99% 30.25 in 7.0 mi WSW 4.6 mph - N/A   Clear
2:55 AM 68.5 °F - 68.4 °F 99% 30.25 in 7.0 mi SW 4.6 mph - N/A   Clear
3:15 AM 69.8 °F - 68.7 °F 96% 30.25 in 10.0 mi WSW 5.8 mph - N/A   Clear
3:35 AM 68.4 °F - 68.0 °F 99% 30.25 in 7.0 mi WSW 5.8 mph - N/A   Clear
3:55 AM 68.9 °F - 68.5 °F 99% 30.26 in 10.0 mi WSW 4.6 mph - N/A   Clear
4:15 AM 68.5 °F - 68.5 °F 100% 30.26 in 7.0 mi SW 4.6 mph - N/A   Clear
4:35 AM 67.6 °F - 67.6 °F 100% 30.26 in 7.0 mi WSW 4.6 mph - N/A   Clear
4:55 AM 67.5 °F - 67.5 °F 100% 30.26 in 5.0 mi WSW 3.5 mph - N/A   Clear
5:15 AM 68.2 °F - 68.2 °F 100% 30.26 in 5.0 mi WSW 3.5 mph - N/A   Clear
5:35 AM 67.5 °F - 67.5 °F 100% 30.27 in 2.0 mi WSW 3.5 mph - N/A   Clear
5:55 AM 67.6 °F - 67.6 °F 100% 30.27 in 3.0 mi WSW 4.6 mph - N/A   Clear
6:15 AM 68.2 °F - 68.2 °F 100% 30.27 in 7.0 mi SW 3.5 mph - N/A   Clear
6:35 AM 70.0 °F - 69.8 °F 99% 30.27 in 7.0 mi WSW 3.5 mph - N/A   Clear
6:55 AM 71.8 °F - 70.5 °F 96% 30.27 in 10.0 mi WSW 3.5 mph - N/A   Clear
7:15 AM 73.8 °F - 70.7 °F 90% 30.28 in 10.0 mi WSW 5.8 mph - N/A   Clear
7:35 AM 75.2 °F - 68.4 °F 79% 30.28 in 10.0 mi WSW 5.8 mph - N/A   Clear
7:55 AM 76.1 °F - 68.0 °F 76% 30.28 in 10.0 mi West 5.8 mph - N/A   Mostly Cloudy
8:15 AM 77.2 °F - 68.0 °F 73% 30.28 in 10.0 mi West 5.8 mph - N/A   Overcast
8:35 AM 78.3 °F - 66.7 °F 68% 30.28 in 10.0 mi West 6.9 mph - N/A   Scattered Clouds
8:55 AM 79.9 °F - 66.6 °F 64% 30.28 in 10.0 mi West 5.8 mph - N/A   Scattered Clouds
9:15 AM 80.4 °F 82.3 °F 65.3 °F 60% 30.28 in 10.0 mi West 6.9 mph - N/A   Scattered Clouds
9:35 AM 81.3 °F 83.2 °F 65.1 °F 58% 30.28 in 10.0 mi West 6.9 mph 10.4 mph N/A   Clear
9:55 AM 82.4 °F 84.1 °F 64.6 °F 55% 30.28 in 10.0 mi West 10.4 mph - N/A   Clear
10:15 AM 83.3 °F 84.8 °F 64.8 °F 53% 30.27 in 10.0 mi WNW 9.2 mph - N/A   Clear
10:35 AM 82.8 °F 83.8 °F 62.8 °F 51% 30.27 in 10.0 mi West 11.5 mph 17.3 mph N/A   Scattered Clouds
10:55 AM 83.5 °F 84.7 °F 63.5 °F 51% 30.27 in 10.0 mi West 8.1 mph - N/A   Scattered Clouds
11:15 AM 84.0 °F 85.2 °F 63.3 °F 50% 30.26 in 10.0 mi West 10.4 mph - N/A   Mostly Cloudy
11:35 AM 85.3 °F 86.4 °F 63.5 °F 48% 30.26 in 10.0 mi West 11.5 mph 18.4 mph N/A   Mostly Cloudy
11:55 AM 85.5 °F 86.1 °F 62.4 °F 46% 30.26 in 10.0 mi West 10.4 mph - N/A   Scattered Clouds
12:15 PM 86.0 °F 86.1 °F 61.3 °F 43% 30.26 in 10.0 mi WNW 12.7 mph 18.4 mph N/A   Scattered Clouds
12:35 PM 84.9 °F 85.4 °F 61.9 °F 46% 30.26 in 10.0 mi WSW 9.2 mph - N/A   Clear
12:55 PM 84.9 °F 85.2 °F 61.3 °F 45% 30.25 in 10.0 mi West 10.4 mph 17.3 mph N/A   Scattered Clouds
1:15 PM 84.9 °F 85.9 °F 63.1 °F 48% 30.25 in 10.0 mi West 8.1 mph 16.1 mph N/A   Mostly Cloudy
1:35 PM 84.7 °F 85.6 °F 62.8 °F 48% 30.25 in 10.0 mi West 10.4 mph - N/A   Mostly Cloudy
1:55 PM 85.5 °F 85.9 °F 62.1 °F 45% 30.24 in 10.0 mi West 9.2 mph 18.4 mph N/A   Scattered Clouds
2:15 PM 85.8 °F 86.3 °F 62.2 °F 45% 30.22 in 10.0 mi West 10.4 mph - N/A   Mostly Cloudy
2:35 PM 87.6 °F 87.7 °F 61.5 °F 41% 30.22 in 10.0 mi West 12.7 mph - N/A   Mostly Cloudy
2:55 PM 86.5 °F 86.8 °F 61.9 °F 43% 30.22 in 10.0 mi West 8.1 mph - N/A   Mostly Cloudy
3:15 PM 87.6 °F 87.7 °F 61.3 °F 41% 30.21 in 10.0 mi WSW 12.7 mph 17.3 mph N/A   Scattered Clouds
3:35 PM 88.2 °F 88.1 °F 61.0 °F 40% 30.20 in 10.0 mi West 12.7 mph 19.6 mph N/A   Scattered Clouds
3:55 PM 85.3 °F 85.4 °F 61.2 °F 44% 30.20 in 10.0 mi West 9.2 mph - N/A   Scattered Clouds
4:15 PM 84.4 °F 85.2 °F 62.6 °F 48% 30.20 in 10.0 mi WSW 8.1 mph - N/A   Mostly Cloudy
4:35 PM 85.3 °F 86.4 °F 63.3 °F 48% 30.20 in 10.0 mi West 10.4 mph 16.1 mph N/A   Mostly Cloudy
4:55 PM 86.9 °F 87.8 °F 63.5 °F 45% 30.20 in 10.0 mi West 9.2 mph - N/A   Mostly Cloudy
5:15 PM 85.1 °F 86.6 °F 64.4 °F 50% 30.20 in 10.0 mi SW 10.4 mph - N/A   Scattered Clouds
5:35 PM 86.0 °F 87.6 °F 64.8 °F 49% 30.18 in 10.0 mi West 11.5 mph - N/A   Clear
5:55 PM 86.0 °F 87.6 °F 64.8 °F 49% 30.18 in 10.0 mi WSW 10.4 mph - N/A   Mostly Cloudy
6:15 PM 85.6 °F 87.1 °F 64.4 °F 49% 30.17 in 10.0 mi West 9.2 mph - N/A   Scattered Clouds
6:35 PM 85.3 °F 86.4 °F 63.3 °F 48% 30.17 in 10.0 mi WSW 10.4 mph - N/A   Clear
6:55 PM 84.7 °F 85.9 °F 63.7 °F 49% 30.17 in 10.0 mi West 9.2 mph - N/A   Clear
7:15 PM 84.0 °F 85.4 °F 64.0 °F 51% 30.17 in 10.0 mi WSW 9.2 mph - N/A   Clear
7:35 PM 82.6 °F 84.1 °F 64.2 °F 54% 30.17 in 10.0 mi WSW 5.8 mph - N/A   Scattered Clouds
7:55 PM 80.6 °F 82.4 °F 65.3 °F 59% 30.17 in 10.0 mi WSW 5.8 mph - N/A   Clear
8:15 PM 77.9 °F - 65.7 °F 66% 30.17 in 10.0 mi WSW 3.5 mph - N/A   Clear
8:35 PM 78.1 °F - 65.3 °F 65% 30.17 in 10.0 mi Calm Calm - N/A   Scattered Clouds
8:55 PM 75.7 °F - 66.0 °F 72% 30.17 in 10.0 mi WSW 3.5 mph - N/A   Scattered Clouds
9:35 PM 75.2 °F - 65.5 °F 72% 30.17 in 10.0 mi Calm Calm - N/A   Clear
9:55 PM 72.5 °F - 65.5 °F 79% 30.17 in 10.0 mi SW 3.5 mph - N/A   Clear
10:15 PM 72.9 °F - 66.2 °F 80% 30.17 in 10.0 mi Calm Calm - N/A   Clear
10:35 PM 71.4 °F - 66.0 °F 83% 30.16 in 10.0 mi SW 4.6 mph - N/A   Clear
10:55 PM 72.0 °F - 65.5 °F 80% 30.16 in 10.0 mi SW 3.5 mph - N/A   Clear
11:15 PM 72.3 °F - 65.7 °F 79% 30.16 in 10.0 mi SW 3.5 mph - N/A   Clear
11:35 PM 72.1 °F - 65.7 °F 80% 30.16 in 10.0 mi WSW 4.6 mph - N/A   Clear
11:55 PM 71.2 °F - 65.5 °F 82% 30.16 in 10.0 mi WSW 5.8 mph - N/A   Clear